Content
SEND FEEDBACK

Daily
Averages
Monthly
Summary
United States of America

FAYETTEVILLE, TENNESSEE


Home > North America > United States > Tennessee
Elevation: 213 meters     Latitude: 35 10N     Longitude: 086 33W

WEATHER
 
SELECT A DAY
Number of Records: 297,789;   Date Range: 4/22/02 - 7/22/14
 
SHARE

PRINT THIS DATA

[ ← Previous Day ]
WEATHER ALMANAC - 31 DECEMBER, 2013
[ Next Day → ]
[ °F ]   °C
Weather ElementAverageHighLow
Temperature0.1 °C4 °C (1:55 pm)-2 °C (4:55 am)
Dewpoint-3.5 °C-2 °C (12:35 am)-6 °C (11:55 am)
Humidity78.2 %93 % (1:35 am)52 % (12:55 pm)
Barometer1028.8 hPa1032.5 hPa (9:55 am)1025.7 hPa (12:35 am)
Wind Speed1.8 km/h9.3 km/h (10:15 am)
Weather ElementAverage
Visibility12.9 km
Wind DirectionENE (54.9 °)

Weather ElementTotal
Precipitation---
Heating Degree Days17.3 (Base 18.3)
Averaged from 71 records on 31 December, 2013
WEATHER CONDITIONS BREAKOUT
WIND DIRECTION BREAKOUT
WEATHER BY HOUR - 31 DECEMBER, 2013
[ °F ]   °C
Local TimeTemperatureDewpointHumidityBarometerVisibilityWind DirectionWind SpeedGust SpeedPrecipitationEventsConditions
12:35 AM0 °C-2 °C87 %1025.7 hPa8 kmCalmClear
12:55 AM0 °C-2 °C87 %1025.7 hPa8 kmCalmClear
1:15 AM0 °C-2 °C87 %1025.7 hPa8 kmCalmClear
1:35 AM-1 °C-2 °C93 %1026.1 hPa8 kmCalmClear
1:55 AM-1 °C-3 °C86 %1026.8 hPa6.4 kmCalmClear
2:15 AM-1 °C-2 °C93 %1026.8 hPa8 kmCalmClear
2:35 AM-1 °C-3 °C86 %1026.8 hPa4 kmCalmScattered Clouds
2:55 AM-1 °C-2 °C93 %1027.1 hPa4.8 kmCalmOvercast
3:15 AM-1 °C-2 °C93 %1027.1 hPa8 kmCalmOvercast
3:35 AM-1 °C-2 °C93 %1027.4 hPa8 kmCalmOvercast
3:55 AM-1 °C-2 °C93 %1027.4 hPa11.3 kmCalmMostly Cloudy
4:15 AM-1 °C-3 °C86 %1027.4 hPa11.3 kmCalmScattered Clouds
4:35 AM-1 °C-3 °C86 %1027.4 hPa8 kmCalmClear
4:55 AM-2 °C-3 °C93 %1028.1 hPa6.4 kmCalmClear
5:15 AM-1 °C-3 °C86 %1028.1 hPa11.3 kmCalmClear
5:35 AM-1 °C-3 °C86 %1028.4 hPa11.3 kmCalmScattered Clouds
5:55 AM-2 °C-3 °C93 %1028.8 hPa11.3 kmCalmOvercast
6:15 AM-2 °C-4 °C86 %1029.1 hPa11.3 kmCalmMostly Cloudy
6:35 AM-2 °C-3 °C93 %1029.1 hPa11.3 kmCalmScattered Clouds
6:55 AM-2 °C-3 °C93 %1029.5 hPa11.3 kmCalmClear
7:15 AM-2 °C-4 °C86 %1029.5 hPa4.8 kmCalmClear
7:35 AM-2 °C-4 °C86 %1030.1 hPa4.8 kmCalmClear
7:55 AM-2 °C-3 °C93 %1030.1 hPa6.4 kmCalmClear
8:15 AM-1 °C-3 °C86 %1030.8 hPa6.4 kmCalmClear
8:35 AM-1 °C-3 °C86 %1030.8 hPa11.3 kmCalmClear
8:55 AM-1 °C-3 °C86 %1031.8 hPa11.3 kmNW (320°)7.4 km/hClear
9:15 AM0 °C-3 °C80 %1031.8 hPa16.1 kmNW (310°)7.4 km/hScattered Clouds
9:35 AM0 °C-3 °C80 %1032.2 hPa16.1 kmNW (310°)5.6 km/hScattered Clouds
9:55 AM0 °C-4 °C75 %1032.5 hPa16.1 kmNorth (360°)7.4 km/hClear
10:15 AM0 °C-5 °C69 %1032.2 hPa16.1 kmNNW (330°)9.3 km/hClear
10:35 AM0 °C-5 °C69 %1031.5 hPa16.1 kmNorth (350°)7.4 km/hClear
10:55 AM1 °C-5 °C65 %1031.2 hPa16.1 kmNorth (360°)9.3 km/hClear
11:15 AM1 °C-5 °C65 %1030.5 hPa16.1 kmNNE (30°)9.3 km/hClear
11:35 AM1 °C-5 °C65 %1030.1 hPa16.1 kmNorth (360°)9.3 km/hClear
11:55 AM2 °C-6 °C56 %1029.8 hPa16.1 kmNE (50°)5.6 km/hClear
12:15 PM2 °C-5 °C60 %1029.1 hPa16.1 kmNNE (30°)7.4 km/hClear
12:35 PM2 °C-6 °C56 %1028.8 hPa16.1 kmNE (40°)7.4 km/hClear
12:55 PM3 °C-6 °C52 %1028.4 hPa16.1 kmCalmClear
1:15 PM3 °C-5 °C56 %1028.4 hPa16.1 kmCalmClear
1:35 PM3 °C-5 °C56 %1028.4 hPa16.1 kmCalmClear
1:55 PM4 °C-5 °C52 %1028.1 hPa16.1 kmCalmClear
2:15 PM4 °C-5 °C52 %1028.1 hPa16.1 kmNE (40°)5.6 km/hClear
2:35 PM4 °C-5 °C52 %1028.1 hPa16.1 kmCalmClear
2:55 PM4 °C-5 °C52 %1028.1 hPa16.1 kmNNE (30°)5.6 km/hClear
3:15 PM4 °C-5 °C52 %1028.4 hPa16.1 kmNNW (340°)9.3 km/hClear
3:35 PM4 °C-4 °C56 %1028.8 hPa16.1 kmNNW (330°)9.3 km/hClear
3:55 PM3 °C-4 °C60 %1028.8 hPa16.1 kmNW (310°)5.6 km/hClear
4:15 PM3 °C-5 °C56 %1028.8 hPa16.1 kmCalmClear
4:35 PM3 °C-5 °C56 %1028.8 hPa16.1 kmCalmClear
4:55 PM2 °C-3 °C70 %1028.4 hPa16.1 kmCalmClear
5:15 PM1 °C-3 °C75 %1028.4 hPa16.1 kmCalmClear
5:35 PM1 °C-3 °C75 %1028.8 hPa16.1 kmCalmClear
5:55 PM0 °C-3 °C80 %1028.8 hPa16.1 kmCalmClear
6:15 PM0 °C-3 °C80 %1028.8 hPa16.1 kmCalmClear
6:35 PM0 °C-2 °C87 %1029.1 hPa16.1 kmCalmClear
6:55 PM0 °C-2 °C87 %1028.8 hPa16.1 kmCalmClear
7:15 PM-1 °C-3 °C86 %1028.4 hPa16.1 kmCalmClear
7:35 PM0 °C-3 °C80 %1028.4 hPa16.1 kmCalmClear
7:55 PM-1 °C-3 °C86 %1028.1 hPa16.1 kmCalmClear
8:15 PM-1 °C-3 °C86 %1028.4 hPa16.1 kmCalmClear
8:35 PM-1 °C-3 °C86 %1028.1 hPa16.1 kmCalmClear
8:55 PM-1 °C-3 °C86 %1028.1 hPa16.1 kmCalmClear
9:15 PM-1 °C-3 °C86 %1028.1 hPa16.1 kmCalmClear
9:35 PM-1 °C-3 °C86 %1028.4 hPa16.1 kmCalmClear
9:55 PM-1 °C-3 °C86 %1028.4 hPa11.3 kmCalmClear
10:15 PM-1 °C-3 °C86 %1028.1 hPa11.3 kmCalmClear
10:35 PM-1 °C-3 °C86 %1028.4 hPa11.3 kmCalmClear
10:55 PM-1 °C-3 °C86 %1027.8 hPa8 kmCalmClear
11:15 PM-1 °C-3 °C86 %1028.1 hPa11.3 kmCalmClear
11:35 PM-1 °C-3 °C86 %1028.1 hPa16.1 kmCalmClear
11:55 PM-2 °C-3 °C93 %1027.8 hPa11.3 kmCalmClear
Hourly data recorded from KMDQ, located 0 kilometers away from Fayetteville, Tennessee







STORIES FROM OUR PARTNERS